www.pogodaiklimat.ru

Погода и климат >> Архив погоды >> Гана >> Kete-Krachi


ПОГОДА в Kete-Krachi

  • Прогноз погоды в Kete-Krachi
  • Монитор погоды в Kete-Krachi
  • Климат города

АРХИВ ПОГОДЫ в Kete-Krachi

Время (UTC), дата Ветер
(напр.,м/с)
 
Видим.   Явления Облачность Т
(С)
Тd
(С)
f
(%)
Тe
(С)
Тes
(С)
Комфортность P
(гПа)
Po
(гПа)
Тmin
(С)
Tmax
(С)
R
(мм)
R24
(мм)
S
(см)
12 14.09 ЮЗ 2 25 км 9/5 400 м
[Cu Sc Ac trans]
+29.0 +25.0 79 +42 +47 опасность
перегрева
1014.9 1015.0
15 14.09 ЮЗ 1 25 км 6/4 500 м
[Cu med, cong Ac trans Ci sp]
+31.0 +25.0 70 +44 +51 опасность
перегрева
1011.2 1011.0
18 14.09 В 1 20 км 5/3 500 м
[Cu med, cong Ac trans Ci sp]
+29.0 +26.4 86 +44 +44 опасность
перегрева
1011.8 1012.0 +31.0
21 14.09 штиль 0 18 км 6/0
[Ac trans]
+26.5 +24.9 91 +38 +38 очень
душно
1013.2 1013.0
00 15.09 штиль 0 18 км 4/0
[Ci sp]
+25.7 +24.8 95 +36 +36 очень
душно
1013.9 1014.0
06 15.09 ЮЗ 4 22 км 9/9 360 м
[Sc]
+25.5 +24.5 94 +36 +36 очень
душно
1013.8 1014.0 +24.4
12 15.09 В 2 26 км 8/5 480 м
[Cu med, cong Ac trans Ci sp]
+30.0 +26.0 79 +45 +53 опасность
перегрева
1015.0 1015.0
15 15.09 ЮВ 1 26 км 6/3 480 м
[Cu med, cong Ac trans Ci sp]
+31.5 +26.2 74 +48 +55 опасность
перегрева
1011.7 1012.0
18 15.09 штиль 0 22 км 8/4 400 м
[Sc Ac trans Ci sp]
+30.2 +26.6 81 +47 +47 опасность
перегрева
1010.8 1011.0 +31.5
21 15.09 штиль 0 18 км 8/0
[Ac trans]
+28.0 +26.0 89 +42 +42 опасность
перегрева
1012.8 1013.0
00 16.09 Ю 2 16 км 9/4 400 м
[Sc Ac trans Ci sp]
+26.7 +25.1 91 +38 +38 очень
душно
1013.0 1013.0
03 16.09 ЮЗ 1 18 км 9/5 400 м
[Sc Ac trans]
+26.0 +24.4 91 +36 +36 очень
душно
1012.4 1012.0
06 16.09 ЮЗ 1 22 км 9/9 400 м
[Sc Ac trans]
+25.0 +22.9 88 +33 +33 очень
душно
1041.6 1042.0 +24.2
15 16.09 ЮЗ 1 12 км слабый дождь 9/6 360 м
[Cu Sc Ac trans]
+25.0 +23.9 94 +34 +37 очень
душно
1010.8 1011.0
18 16.09 штиль 0 20 км {дождь} 9/5 360 м
[Sc Ac trans]
+25.0 +24.2 95 +34 +34 очень
душно
1012.2 1012.0 +29.0 37
21 16.09 штиль 0 16 км гроза без осадков {дождь} 9/4 360 м
[Cb cap Ac trans]
+25.0 +23.8 93 +34 +34 очень
душно
1014.1 1014.0
00 17.09 штиль 0 16 км {гроза, дождь} 9/6 360 м
[Sc Ac trans]
+25.3 +24.5 95 +35 +35 очень
душно
1014.7 1015.0 0.1
06 17.09 ЮЗ 1 18 км 9/5 360 м
[Sc Ac trans]
+24.6 +23.2 92 +33 +33 очень
душно
1015.2 1015.0 +24.4 37
09 17.09 ЮЗ 2 24 км 9/4 480 м
[Cu med, cong Ac trans]
+25.7 +23.4 87 +35 +38 очень
душно
1017.5 1018.0
12 17.09 штиль 0 26 км 9/6 480 м
[Cu med, cong Ac trans]
+29.5 +24.6 75 +42 +48 опасность
перегрева
1017.0 1017.0
15 17.09 штиль 0 24 км 9/4 480 м
[Cu med, cong Ac trans]
+29.7 +24.7 75 +42 +47 опасность
перегрева
1014.6 1015.0
09 18.09 ЮЗ 2 25 км 9/9 400 м
[Cu Sc]
+27.0 +24.8 88 +39 +40 очень
душно
1017.3 1017.0
12 18.09 ЮЗ 2 25 км 8/5 400 м
[Cu Sc Ac trans Ci sp]
+30.0 +25.3 76 +44 +51 опасность
перегрева
1016.5 1017.0
15 18.09 СЗ 2 15 км {дождь} 6/4 500 м
[Cu med, cong Ac trans Ci sp]
+32.0 +25.3 68 +46 +52 опасность
перегрева
1013.7 1014.0
21 18.09 штиль 0 18 км 5/0
[Ci sp]
+26.9 +25.0 89 +39 +39 очень
душно
1014.5 1015.0
09 19.09 ЮЗ 2 25 км 4/3 400 м
[Cu Sc Ac trans]
+27.5 +24.5 84 +39 +46 очень
душно
1016.9 1017.0
12 19.09 ЮВ 1 25 км 8/4 500 м
[Cu med, cong Ac trans Ci sp]
+29.7 +24.9 75 +42 +53 опасность
перегрева
1014.2 1014.0
18 19.09 С 1 25 км 6/3 500 м
[Cb cap Ac trans Ci sp]
+31.4 +26.4 75 +48 +48 опасность
перегрева
1010.3 1010.0 +32.0
21 19.09 штиль 0 16 км зарница [диам. изморози 320 мм] 6/4 400 м
[Cb cap Ac trans Ci sp]
+27.9 +26.0 89 +42 +42 опасность
перегрева
1013.2 1013.0
00 20.09 штиль 0 16 км зарница 5/3 400 м
[Cb cap Ci sp]
+26.8 +25.4 92 +39 +39 очень
душно
1013.1 1013.0
09 20.09 ЮЗ 2 25 км 8/5 400 м
[Cu Sc Ac trans]
+27.9 +25.4 86 +41 +44 опасность
перегрева
1015.9 1016.0
12 20.09 ЮЗ 2 25 км 6/4 480 м
[Cu med, cong Ac trans Ci sp]
+30.0 +25.9 79 +45 +57 опасность
перегрева
1014.3 1014.0
15 20.09 ЮВ 2 25 км 6/3 500 м
[Cu med, cong Ac trans Ci sp]
+31.5 +26.8 76 +49 +55 опасность
перегрева
1011.1 1011.0
18 20.09 штиль 0 14 км 9/4 400 м
[Cb cap Ac trans Cs]
+29.7 +25.7 79 +44 +44 опасность
перегрева
1011.1 1011.0 +31.5
21 20.09 штиль 0 18 км гроза без осадков 8/5 400 м
[Cb cap Ac trans]
+28.0 +26.1 89 +42 +42 опасность
перегрева
1012.2 1012.0
00 21.09 штиль 0 18 км {гроза} 8/4 400 м
[Sc Ac trans]
+26.8 +25.7 94 +40 +40 очень
душно
1013.9 1014.0
03 21.09 штиль 0 18 км 8/4 400 м
[Sc Ac trans]
+26.5 +25.4 94 +39 +39 очень
душно
1012.1 1012.0
09 21.09 ЮЗ 4 25 км 9/9 400 м
[Cu Sc]
+26.4 +24.6 90 +37 +38 очень
душно
1015.4 1015.0

 

Местоположение метеостанции Kete-Krachi (Гана): широта 7.82 долгота -0.03 высота над уровнем моря 122 м.

В архиве по умолчанию представлена погода в Kete-Krachi за последнюю неделю. Архивные данные за месяц целиком и за предыдущие месяцы, начиная с января 2011 года, Вы можете получить, выбрав интересующий диапазон дат из раскрывающегося списка и нажав кнопку "Ввод!".

Внимание! Время в таблицах - всемирное. Для получения местного времени необходимо прибавить поправку, которая в Kete-Krachi равна 1 ч.

Смотрите также архив погоды в соседних городах и на ближайших метеорологических станциях:

Погода в Atakpame (Того) (130 км)
Погода в Ho (Гана) (146 км)
Погода в Abetifi (Гана) (151 км)
Погода в Yendi (Гана) (181 км)
Погода в Sokode (Того) (183 км)
Погода в Akuse (Гана) (192 км)
Погода в Koforidua (Гана) (195 км)
Погода в Tamale (Гана) (207 км)
Погода в Akatsi (Гана) (210 км)
Погода в Kumasi (Гана) (212 км)

Пояснения к столбцам:

Ветер - указаны скорость ветра в м/с - средняя за 10 мин, порывы в срок и между сроками (в фигурных скобках) и направление, откуда дует ветер: С - северный, СВ - северо-восточный, В - восточный, ЮВ - юго-восточный, Ю - южный, ЮЗ - юго-западный, З - западный, СЗ - северо-западный.
Видимость - горизонтальная дальность видимости в метрах или километрах. При видимости от 1 до 10 км при отсутствии осадков обычно наблюдается дымка, при ухудшении видимости до 1 км и менее - туман. В сухую погоду видимость может ухудшаться дымом, пылью или мглою.
Явления - указаны атмосферные явления, наблюдавшиеся в срок или в последний час перед сроком; фигурными скобками обозначены явления, наблюдавшиеся между сроками (за 1-3 часа до срока); квадратными скобками обозначены град или гололедные отложения с указанием их диаметра в мм.
Облачность - указаны через наклонную черту общая и нижняя облачность в баллах и высота нижней границы облаков в метрах; квадратными скобками обозначены формы облаков: Ci - перистые, Cs - перисто-слоистые, Cc - перисто-кучевые, Ac - высококучевые, As - высокослоистые, Sc - слоисто-кучевые, Ns - слоисто-дождевые, Cu - кучевые, Cb - кучево-дождевые. Подробнее классификацию облаков см. в Атласе облаков (PDF).
T - Температура воздуха - температура, измеренная на высоте 2 м над землей.
Td - Температура точки росы - температура, при понижении до которой содержащийся в воздухе водяной пар достигнет насыщения.
f - Относительная влажность воздуха - влажноcть воздуха, измеренная на высоте 2 м над землей.
Te - Эффективная температура - температура, которую ощущает одетый по сезону человек в тени. Характеристика душности погоды. При расчете учитывается влияние влажности воздуха и скорости ветра на теплоощущения человека.
Tes - Эффективная температура на солнце - температура, которую ощущает человек, с поправкой на солнечный нагрев. Характеристика знойности погоды. Зависит от высоты солнца над горизонтом, облачности и скорости ветра. Ночью, в пасмурную погоду, а также при ветре 12 м/с и более поправка равна нулю.
P - Атмосферное давление - приведенное к уровню моря атмосферное давление.
Po - Атмосферное давление - измеренное на уровне метеостанции атмосферное давление.
Tmin - Минимальная температура - минимум температуры воздуха на высоте 2 м над землей.
Tmax - Максимальная температура - максимум температуры воздуха на высоте 2 м над землей.
R - Количество осадков - Количество выпавших осадков за период времени, мм. При наведении курсора мыши на число - период времени, за который выпало указанное количество осадков.
R24 - Количество осадков - Количество выпавших осадков за 24 часа, мм.
S - Снежный покров - Высота снежного покрова, см. При наведении курсора мыши на число - состояние снежного покрова и степень покрытия местности в баллах.